TimeCST,TemperatureF,Dew PointF,Humidity,Sea Level PressureIn,VisibilityMPH,Wind Direction,Wind SpeedMPH,Gust SpeedMPH,PrecipitationIn,Events,Conditions,WindDirDegrees,DateUTC
12:15 AM,32.0,28.4,87,30.33,10.0,Calm,Calm,-,N/A,,Overcast,0,2013-03-07 06:15:00
12:35 AM,32.0,30.2,93,30.34,10.0,Calm,Calm,-,N/A,,Overcast,0,2013-03-07 06:35:00
12:55 AM,32.0,30.2,93,30.35,10.0,Calm,Calm,-,N/A,,Overcast,0,2013-03-07 06:55:00
1:15 AM,32.0,30.2,93,30.35,10.0,Calm,Calm,-,N/A,,Overcast,0,2013-03-07 07:15:00
1:35 AM,32.0,30.2,93,30.36,10.0,Calm,Calm,-,N/A,,Overcast,0,2013-03-07 07:35:00
1:55 AM,32.0,30.2,93,30.35,10.0,Calm,Calm,-,N/A,,Overcast,0,2013-03-07 07:55:00
2:15 AM,32.0,30.2,93,30.35,10.0,Calm,Calm,-,N/A,,Overcast,0,2013-03-07 08:15:00
2:35 AM,32.0,30.2,93,30.35,10.0,Calm,Calm,-,N/A,,Overcast,0,2013-03-07 08:35:00
2:55 AM,32.0,30.2,93,30.35,10.0,Calm,Calm,-,N/A,,Overcast,0,2013-03-07 08:55:00
3:15 AM,32.0,30.2,93,30.35,10.0,Calm,Calm,-,N/A,,Overcast,0,2013-03-07 09:15:00
3:35 AM,32.0,30.2,93,30.36,10.0,Calm,Calm,-,N/A,,Overcast,0,2013-03-07 09:35:00
3:55 AM,32.0,30.2,93,30.36,10.0,Calm,Calm,-,N/A,,Overcast,0,2013-03-07 09:55:00
4:15 AM,32.0,30.2,93,30.37,10.0,Calm,Calm,-,N/A,,Overcast,0,2013-03-07 10:15:00
4:55 AM,32.0,30.2,93,30.37,10.0,Calm,Calm,-,N/A,,Overcast,0,2013-03-07 10:55:00
5:15 AM,32.0,30.2,93,30.37,10.0,Calm,Calm,-,N/A,,Overcast,0,2013-03-07 11:15:00
5:35 AM,32.0,30.2,93,30.38,10.0,NW,6.9,-,N/A,,Overcast,320,2013-03-07 11:35:00
5:55 AM,32.0,30.2,93,30.39,10.0,NW,5.8,-,N/A,,Overcast,320,2013-03-07 11:55:00
6:15 AM,32.0,30.2,93,30.39,10.0,NNW,4.6,-,N/A,,Overcast,340,2013-03-07 12:15:00
6:35 AM,32.0,30.2,93,30.39,10.0,Calm,Calm,-,N/A,,Overcast,0,2013-03-07 12:35:00
6:55 AM,32.0,30.2,93,30.40,10.0,North,4.6,-,N/A,,Overcast,360,2013-03-07 12:55:00
7:15 AM,32.0,30.2,93,30.41,10.0,North,4.6,-,N/A,,Overcast,350,2013-03-07 13:15:00
7:35 AM,32.0,30.2,93,30.40,10.0,Calm,Calm,-,N/A,,Overcast,0,2013-03-07 13:35:00
7:55 AM,32.0,30.2,93,30.41,10.0,Calm,Calm,-,N/A,,Overcast,0,2013-03-07 13:55:00
8:15 AM,32.0,30.2,93,30.41,10.0,Calm,Calm,-,N/A,,Overcast,0,2013-03-07 14:15:00
8:35 AM,32.0,30.2,93,30.42,10.0,Calm,Calm,-,N/A,,Overcast,0,2013-03-07 14:35:00
8:55 AM,32.0,30.2,93,30.42,10.0,Calm,Calm,-,N/A,,Overcast,0,2013-03-07 14:55:00
9:15 AM,33.8,30.2,87,30.43,10.0,NNW,5.8,-,N/A,,Overcast,330,2013-03-07 15:15:00
9:35 AM,33.8,30.2,87,30.43,10.0,NW,4.6,-,N/A,,Overcast,320,2013-03-07 15:35:00
9:55 AM,33.8,30.2,87,30.42,10.0,Calm,Calm,-,N/A,,Overcast,0,2013-03-07 15:55:00
10:15 AM,33.8,30.2,87,30.42,10.0,Calm,Calm,-,N/A,,Overcast,0,2013-03-07 16:15:00
10:35 AM,33.8,30.2,87,30.42,10.0,Calm,Calm,-,N/A,,Overcast,0,2013-03-07 16:35:00
10:55 AM,35.6,28.4,75,30.42,10.0,Calm,Calm,-,N/A,,Overcast,0,2013-03-07 16:55:00
11:15 AM,35.6,30.2,81,30.42,10.0,Calm,Calm,-,N/A,,Overcast,0,2013-03-07 17:15:00
11:35 AM,35.6,30.2,81,30.42,10.0,Calm,Calm,-,N/A,,Overcast,0,2013-03-07 17:35:00
11:55 AM,35.6,30.2,81,30.42,10.0,Calm,Calm,-,N/A,,Overcast,0,2013-03-07 17:55:00
12:15 PM,35.6,30.2,81,30.42,10.0,Calm,Calm,-,N/A,,Overcast,0,2013-03-07 18:15:00
12:35 PM,37.4,30.2,75,30.41,10.0,Calm,Calm,-,N/A,,Overcast,0,2013-03-07 18:35:00
12:55 PM,37.4,30.2,75,30.39,10.0,Calm,Calm,-,N/A,,Overcast,0,2013-03-07 18:55:00
1:15 PM,37.4,28.4,70,30.39,10.0,South,3.5,-,N/A,,Overcast,170,2013-03-07 19:15:00
1:35 PM,37.4,30.2,75,30.38,10.0,Calm,Calm,-,N/A,,Overcast,0,2013-03-07 19:35:00
1:55 PM,37.4,30.2,75,30.38,10.0,Calm,Calm,-,N/A,,Overcast,0,2013-03-07 19:55:00
2:15 PM,37.4,30.2,75,30.38,10.0,Calm,Calm,-,N/A,,Overcast,0,2013-03-07 20:15:00
2:35 PM,37.4,30.2,75,30.38,10.0,Calm,Calm,-,N/A,,Overcast,0,2013-03-07 20:35:00
2:55 PM,37.4,30.2,75,30.38,10.0,South,3.5,-,N/A,,Overcast,190,2013-03-07 20:55:00
3:15 PM,37.4,30.2,75,30.38,10.0,Calm,Calm,-,N/A,,Overcast,0,2013-03-07 21:15:00
3:35 PM,37.4,30.2,75,30.38,10.0,Calm,Calm,-,N/A,,Overcast,0,2013-03-07 21:35:00
3:55 PM,37.4,30.2,75,30.38,10.0,Calm,Calm,-,N/A,,Overcast,0,2013-03-07 21:55:00
4:15 PM,37.4,30.2,75,30.38,10.0,Calm,Calm,-,N/A,,Overcast,0,2013-03-07 22:15:00
4:35 PM,37.4,30.2,75,30.38,10.0,Calm,Calm,-,N/A,,Overcast,0,2013-03-07 22:35:00
4:55 PM,37.4,28.4,70,30.38,10.0,Calm,Calm,-,N/A,,Overcast,0,2013-03-07 22:55:00
5:15 PM,37.4,30.2,75,30.39,10.0,Calm,Calm,-,N/A,,Overcast,0,2013-03-07 23:15:00
5:35 PM,37.4,30.2,75,30.39,10.0,Calm,Calm,-,N/A,,Overcast,0,2013-03-07 23:35:00
5:55 PM,37.4,30.2,75,30.39,10.0,Calm,Calm,-,N/A,,Overcast,0,2013-03-07 23:55:00
7:35 PM,37.4,30.2,75,30.40,10.0,Calm,Calm,-,N/A,,Overcast,0,2013-03-08 01:35:00
7:55 PM,35.6,30.2,81,30.39,10.0,Calm,Calm,-,N/A,,Overcast,0,2013-03-08 01:55:00
8:15 PM,35.6,30.2,81,30.39,10.0,Calm,Calm,-,N/A,,Overcast,0,2013-03-08 02:15:00
8:35 PM,35.6,32.0,87,30.39,10.0,Calm,Calm,-,N/A,,Overcast,0,2013-03-08 02:35:00
8:55 PM,35.6,30.2,81,30.39,10.0,Calm,Calm,-,N/A,,Overcast,0,2013-03-08 02:55:00
9:15 PM,35.6,32.0,87,30.39,10.0,Calm,Calm,-,N/A,,Overcast,0,2013-03-08 03:15:00
9:35 PM,35.6,30.2,81,30.39,10.0,East,5.8,-,N/A,,Overcast,90,2013-03-08 03:35:00
9:55 PM,33.8,30.2,87,30.39,10.0,East,5.8,-,N/A,,Mostly Cloudy,90,2013-03-08 03:55:00
10:15 PM,33.8,30.2,87,30.39,10.0,Calm,Calm,-,N/A,,Scattered Clouds,0,2013-03-08 04:15:00
10:35 PM,33.8,30.2,87,30.39,10.0,Calm,Calm,-,N/A,,Clear,0,2013-03-08 04:35:00
10:55 PM,32.0,30.2,93,30.39,10.0,Calm,Calm,-,N/A,,Scattered Clouds,0,2013-03-08 04:55:00
11:15 PM,32.0,30.2,93,30.40,10.0,Calm,Calm,-,N/A,,Mostly Cloudy,0,2013-03-08 05:15:00
11:35 PM,32.0,30.2,93,30.40,10.0,Calm,Calm,-,N/A,,Overcast,0,2013-03-08 05:35:00
11:55 PM,33.8,30.2,87,30.40,10.0,Calm,Calm,-,N/A,,Mostly Cloudy,0,2013-03-08 05:55:00